Regional Weather Roundup
Issued by NWS Cleveland, OH

Home | Current Version | Previous Version | Text Only | Print | Product List | Glossary On
Versions: 1 2 3 4 5 6 7 8 9 10 11 12 13 14 15 16 17 18 19 20 21 22 23 24 25 26 27 28 29 30 31 32 33 34 35 36 37 38 39 40 41 42 43 44 45 46 47 48 49 50
000
ASUS41 KCLE 191210
RWRCLE
OHIO REGIONAL WEATHER ROUNDUP
NATIONAL WEATHER SERVICE CLEVELAND, OH
700 AM EST FRI DEC 19 2014

NOTE: "FAIR" INDICATES FEW OR NO CLOUDS BELOW 12,000 FEET WITH NO
SIGNIFICANT WEATHER AND/OR OBSTRUCTIONS TO VISIBILITY.

OHZ001>008-015>018-024>027-034-035-043-044-191300-
   NORTHWEST OHIO

CITY           SKY/WX    TMP DP  RH WIND       PRES   REMARKS
DEFIANCE       CLOUDY    29  24  82 W3        30.25R
FINDLAY        CLOUDY    29  24  82 W7        30.23R WCI  22
TOLEDO EXPRESS CLOUDY    28  25  86 W6        30.24R WCI  22
TOLEDO EXEC    CLOUDY    30  25  81 W6        30.25R WCI  24
LIMA           CLOUDY    30  22  72 W7        30.23S WCI  23
$$

OHZ009>014-019>023-028>033-038-089-191300-
   NORTHEAST OHIO

CITY           SKY/WX    TMP DP  RH WIND       PRES   REMARKS
CLE-HOPKINS    FRZ DRZL  29  26  89 NW7       30.24R FOG     WCI  22
CLE-LAKEFRONT  CLOUDY    32  24  72 N17       30.20R WCI  21
CUY CO. ARPT   CLOUDY    32  25  74 NW14      30.20  WCI  22
LORAIN-ELYRIA  CLOUDY    28  26  92 N6        30.23R WCI  22
ASHTABULA      CLOUDY    29  24  82 NW8       30.17R WCI  21
AKRON-CANTON   FRZ DRZL  29  26  89 W10       30.18R FOG     WCI  20
WOOSTER        CLOUDY    28  26  92 W10       30.21R FOG     WCI  19
MANSFIELD      CLOUDY    27  25  92 W5        30.20R FOG     WCI  22
YOUNGSTOWN     CLOUDY    28  26  92 NW9       30.16R WCI  19
$$

OHZ042-051>053-060>062-070>072-077>081-191300-
  SOUTHWEST OHIO

CITY           SKY/WX    TMP DP  RH WIND       PRES   REMARKS
CINC-COVINGTON CLOUDY    27  20  75 CALM      30.26R
CINC-LUNKEN    CLOUDY    28  22  78 CALM      30.30R
HAMILTON       CLOUDY    28  21  75 NW5       30.28R WCI  23
DAYTON         CLOUDY    27  20  75 W5        30.25R WCI  22
WRIGHT-PAT AFB CLOUDY    27  20  76 W2        30.26R
DAYTON GENERAL CLOUDY    27  20  75 N6        30.24R WCI  20
WILMINGTON     CLOUDY    26  19  74 N6        30.24R WCI  19
$$

OHZ036-037-039>041-045>050-054>059-063>069-073>076-082>088-191300-
  CENTRAL AND SOUTHEAST OHIO

CITY           SKY/WX    TMP DP  RH WIND       PRES   REMARKS
COLUMBUS       CLOUDY    28  21  75 W5        30.25R WCI  23
OSU AIRPORT    CLOUDY    28  22  78 W7        30.24R WCI  21
BOLTON FIELD   NOT AVBL
RICKENBACK AFB CLOUDY    28  22  78 CALM      30.25R
NEWARK         CLOUDY    29  22  75 NW3       30.23R
MARION         CLOUDY    27  23  85 W7        30.23S FOG     WCI  19
LANCASTER      CLOUDY    29  22  75 CALM      30.24R
ZANESVILLE     CLOUDY    27  22  81 SW5       30.23R WCI  22
NEW PHILLY     CLOUDY    30  25  81 W5        30.22R WCI  25
$$


USA.gov is the U.S. government's official web portal to all federal, state and local government web resources and services.